This is the latest recevied weather packets stored in our database for station/object N0QV. If no packets are shown the sender has not sent any weather packets the latest 10 day(s).
| Time | Temp. | Humidity | Pressure | Rain* | Wind** | Luminosity | Snow |
|---|---|---|---|---|---|---|---|
| 1777493186 | 15.56° C | 34% | 1018 hPa | 0 mm | - | 144 W/m² | - |
| 1777492882 | 15° C | 36% | 1018.2 hPa | 0 mm | - | 718 W/m² | - |
| 1777492579 | 14.44° C | 38% | 1018.2 hPa | 0 mm | - | 730 W/m² | - |
| 1777492274 | 14.44° C | 37% | 1018.5 hPa | 0 mm | - | 773 W/m² | - |
| 1777491972 | 13.89° C | 38% | 1018.1 hPa | 0 mm | - | 681 W/m² | - |
| 1777491668 | 13.33° C | 38% | 1018.4 hPa | 0 mm | - | 722 W/m² | - |
| 1777491366 | 13.33° C | 38% | 1018.4 hPa | 0 mm | - | 318 W/m² | - |
| 1777491062 | 13.33° C | 39% | 1018.4 hPa | 0 mm | - | 334 W/m² | - |
| 1777490757 | 12.78° C | 37% | 1018.6 hPa | 0 mm | - | 271 W/m² | - |
| 1777490455 | 13.33° C | 38% | 1018.5 hPa | 0 mm | - | 216 W/m² | - |
| 1777490151 | 13.33° C | 38% | 1018.7 hPa | 0 mm | - | 759 W/m² | - |
| 1777489849 | 12.78° C | 39% | 1018.8 hPa | 0 mm | - | 231 W/m² | - |
| 1777489546 | 13.33° C | 38% | 1018.6 hPa | 0 mm | - | 227 W/m² | - |
| 1777489243 | 13.33° C | 38% | 1018.6 hPa | 0 mm | - | 234 W/m² | - |
| 1777488939 | 13.89° C | 38% | 1018.8 hPa | 0 mm | - | 208 W/m² | - |
| 1777488636 | 14.44° C | 40% | 1018.6 hPa | 0 mm | - | 829 W/m² | - |
| 1777488334 | 14.44° C | 37% | 1018.7 hPa | 0 mm | - | 203 W/m² | - |
| 1777488033 | 13.89° C | 36% | 1018.7 hPa | 0 mm | - | 686 W/m² | - |
| 1777487730 | 13.89° C | 36% | 1019 hPa | 0 mm | - | 697 W/m² | - |
| 1777487427 | 12.78° C | 38% | 1018.7 hPa | 0 mm | - | 734 W/m² | - |
| 1777487125 | 13.33° C | 40% | 1018.8 hPa | 0 mm | - | 242 W/m² | - |
| 1777486820 | 13.89° C | 36% | 1019 hPa | 0 mm | - | 820 W/m² | - |
| 1777486518 | 13.33° C | 39% | 1019 hPa | 0 mm | - | 823 W/m² | - |
| 1777486215 | 14.44° C | 36% | 1019 hPa | 0 mm | - | 846 W/m² | - |
| 1777485913 | 13.33° C | 40% | 1019.1 hPa | 0 mm | - | 808 W/m² | - |
* Rain latest hour (hover to see other rain measurements)
** Current wind speed in m/s (hover to see current wind gust speed)